Content
SEND FEEDBACK

Daily
Averages
Monthly
Summary
Canada

VANCOUVER, BRITISH COLUMBIA


Home > North America > Canada > British Columbia
Elevation: 7 feet     Latitude: 49 11N     Longitude: 123 10W

WEATHER
 
SELECT A DAY
Number of Records: 249,704;   Date Range: 5/15/97 - 8/31/14
 
SHARE

PRINT THIS DATA

[ ← Previous Day ]
WEATHER ALMANAC - APRIL 27, 2013
[ Next Day → ]
[ °C ]   °F
Weather ElementAverageHighLow
Temperature51.1 °F53.6 °F (11:35 am)48.2 °F (7:35 am)
Dewpoint45.4 °F48.2 °F (3:35 pm)42.8 °F (12:35 am)
Humidity81.1 %88 % (7:15 pm)71 % (12:35 am)
Barometer30.15 in30.17 in (12:35 am)30.10 in (7:15 am)
Wind Speed9.1 mph17.3 mph (6:55 pm)
Wind Gust21.9 mph (6:55 pm)
Weather ElementAverage
Visibility9.9 mi
Wind DirectionS (178.9 °)

Weather ElementTotal
Precipitation---
Heating Degree Days14.1 (Base 65)
Growing Degree Days0.9 (Base 50)
Averaged from 65 records on April 27, 2013
WEATHER CONDITIONS BREAKOUT
WIND DIRECTION BREAKOUT
WEATHER BY HOUR - APRIL 27, 2013
[ °C ]   °F
Local TimeTemperatureDewpointHumidityBarometerVisibilityWind DirectionWind SpeedGust SpeedPrecipitationEventsConditions
12:35 AM51.8 °F42.8 °F71 %30.17 in10.0 miSouth (190°)5.8 mphPartly Cloudy
12:55 AM51.8 °F44.6 °F76 %30.17 in10.0 miSouth (180°)5.8 mphClear
1:15 AM50.0 °F44.6 °F82 %30.17 in10.0 miSouth (190°)8.1 mphClear
1:35 AM51.8 °F42.8 °F71 %30.17 in10.0 miSouth (180°)6.9 mphPartly Cloudy
1:55 AM50.0 °F44.6 °F82 %30.17 in10.0 miSouth (170°)3.5 mphScattered Clouds
2:15 AM51.8 °F42.8 °F71 %30.16 in10.0 miNorthMostly Cloudy
2:35 AM50.0 °F44.6 °F82 %30.16 in10.0 miNorthScattered Clouds
3:15 AM50.0 °F44.6 °F82 %30.14 in10.0 miCalmPartly Cloudy
3:35 AM50.0 °F44.6 °F82 %30.14 in10.0 miSouth (180°)6.9 mphScattered Clouds
4:35 AM50.0 °F42.8 °F76 %30.14 in10.0 miSouth (170°)4.6 mphMostly Cloudy
5:15 AM50.0 °F44.6 °F82 %30.12 in10.0 miSouth (190°)9.2 mphPartly Cloudy
5:35 AM50.0 °F44.6 °F82 %30.12 in10.0 miSouth (190°)9.2 mphMostly Cloudy
5:55 AM50.0 °F44.6 °F82 %30.11 in10.0 miSouth (190°)9.2 mphScattered Clouds
6:15 AM50.0 °F44.6 °F82 %30.12 in10.0 miSouth (180°)8.1 mphScattered Clouds
6:35 AM50.0 °F44.6 °F82 %30.11 in10.0 miSouth (170°)5.8 mphPartly Cloudy
7:15 AM50.0 °F44.6 °F82 %30.10 in10.0 miSouth (190°)10.4 mphClear
7:35 AM48.2 °F44.6 °F87 %30.11 in10.0 miSouth (190°)12.7 mphPartly Cloudy
7:55 AM50.0 °F44.6 °F82 %30.10 in10.0 miSouth (190°)10.4 mphScattered Clouds
8:15 AM50.0 °F44.6 °F82 %30.11 in10.0 miSouth (190°)12.7 mphScattered Clouds
8:35 AM50.0 °F44.6 °F82 %30.11 in10.0 miSouth (180°)9.2 mphMostly Cloudy
8:55 AM50.0 °F44.6 °F82 %30.12 in10.0 miSouth (180°)11.5 mphMostly Cloudy
9:15 AM50.0 °F44.6 °F82 %30.13 in10.0 miSouth (180°)8.1 mphMostly Cloudy
9:35 AM50.0 °F44.6 °F82 %30.14 in10.0 miSouth (190°)10.4 mphMostly Cloudy
9:55 AM50.0 °F44.6 °F82 %30.14 in10.0 miSouth (190°)9.2 mphScattered Clouds
10:15 AM50.0 °F44.6 °F82 %30.15 in10.0 miSouth (190°)8.1 mphMostly Cloudy
10:35 AM51.8 °F44.6 °F76 %30.15 in10.0 miSouth (170°)3.5 mphOvercast
10:55 AM51.8 °F44.6 °F76 %30.16 in10.0 miSouth (180°)8.1 mphOvercast
11:15 AM51.8 °F44.6 °F76 %30.16 in10.0 miSouth (190°)9.2 mphOvercast
11:35 AM53.6 °F44.6 °F72 %30.15 in9.0 miSSW (200°)11.5 mph16.1 mphMostly Cloudy
11:55 AM51.8 °F46.4 °F82 %30.15 in8.0 miSouth (190°)12.7 mphRainLight Rain
12:15 PM51.8 °F46.4 °F82 %30.15 in9.0 miSouth (190°)10.4 mphMostly Cloudy
12:35 PM51.8 °F44.6 °F76 %30.16 in10.0 miSouth (190°)8.1 mphOvercast
12:55 PM51.8 °F44.6 °F76 %30.16 in10.0 miSouth (190°)8.1 mphOvercast
1:15 PM51.8 °F44.6 °F76 %30.16 in10.0 miSouth (180°)10.4 mph16.1 mphOvercast
1:35 PM51.8 °F44.6 °F76 %30.16 in10.0 miSouth (170°)5.8 mphOvercast
1:55 PM51.8 °F46.4 °F82 %30.16 in10.0 miSouth (180°)9.2 mphMostly Cloudy
2:15 PM51.8 °F46.4 °F82 %30.15 in9.0 miSouth (190°)12.7 mphMostly Cloudy
2:55 PM51.8 °F46.4 °F82 %30.16 in10.0 miSSW (200°)8.1 mphMostly Cloudy
3:15 PM51.8 °F46.4 °F82 %30.16 in10.0 miSSW (200°)10.4 mphMostly Cloudy
3:35 PM53.6 °F48.2 °F82 %30.16 in8.0 miSSW (210°)9.2 mphRainLight Rain
3:55 PM53.6 °F48.2 °F82 %30.16 in10.0 miSSW (200°)11.5 mphPartly Cloudy
4:15 PM53.6 °F48.2 °F82 %30.16 in10.0 miSSW (200°)8.1 mphMostly Cloudy
4:35 PM53.6 °F48.2 °F82 %30.15 in10.0 miSouth (180°)12.7 mph18.4 mphScattered Clouds
4:55 PM53.6 °F48.2 °F82 %30.16 in10.0 miSouth (180°)5.8 mphMostly Cloudy
5:15 PM53.6 °F46.4 °F77 %30.15 in10.0 miSouth (180°)9.2 mphMostly Cloudy
5:35 PM53.6 °F46.4 °F77 %30.15 in10.0 miSouth (180°)11.5 mph17.3 mphMostly Cloudy
5:55 PM53.6 °F48.2 °F82 %30.15 in10.0 miSouth (180°)6.9 mph16.1 mphScattered Clouds
6:15 PM53.6 °F46.4 °F77 %30.15 in10.0 miSouth (180°)9.2 mphScattered Clouds
6:35 PM53.6 °F46.4 °F77 %30.14 in10.0 miSSW (200°)15.0 mphScattered Clouds
6:55 PM53.6 °F46.4 °F77 %30.14 in10.0 miSSW (200°)17.3 mph21.9 mphScattered Clouds
7:15 PM51.8 °F48.2 °F88 %30.14 in10.0 miSouth (190°)15.0 mphPartly Cloudy
7:35 PM53.6 °F48.2 °F82 %30.14 in10.0 miSouth (190°)11.5 mph19.6 mphClear
7:55 PM51.8 °F48.2 °F88 %30.14 in10.0 miSSW (200°)12.7 mphClear
8:15 PM50.0 °F46.4 °F87 %30.13 in10.0 miSSW (200°)12.7 mph20.7 mphClear
8:35 PM50.0 °F46.4 °F87 %30.14 in10.0 miSSW (200°)13.8 mphClear
8:55 PM50.0 °F46.4 °F87 %30.14 in10.0 miSouth (190°)5.8 mphClear
9:15 PM50.0 °F46.4 °F87 %30.15 in10.0 miSouth (190°)11.5 mphClear
9:35 PM50.0 °F44.6 °F82 %30.16 in10.0 miSouth (180°)5.8 mphClear
9:55 PM50.0 °F46.4 °F87 %30.16 in10.0 miSouth (190°)10.4 mphClear
10:15 PM50.0 °F44.6 °F82 %30.16 in10.0 miSSW (200°)11.5 mphClear
10:35 PM48.2 °F44.6 °F87 %30.16 in10.0 miSSW (200°)8.1 mphClear
10:55 PM48.2 °F44.6 °F87 %30.16 in10.0 miSouth (180°)4.6 mphClear
11:15 PM48.2 °F44.6 °F87 %30.16 in10.0 miSouth (190°)8.1 mphClear
11:35 PM48.2 °F44.6 °F87 %30.17 in10.0 miSouth (180°)5.8 mphClear
11:55 PM48.2 °F42.8 °F82 %30.16 in10.0 miSouth (190°)8.1 mphClear
Hourly data recorded from CZBB, located miles away from Vancouver, British Columbia







STORIES FROM OUR PARTNERS